TimeCST,TemperatureF,Dew PointF,Humidity,Sea Level PressureIn,VisibilityMPH,Wind Direction,Wind SpeedMPH,Gust SpeedMPH,PrecipitationIn,Events,Conditions,WindDirDegrees,DateUTC
12:15 AM,46.4,41.0,81,30.11,10.0,Calm,Calm,-,N/A,,Overcast,0,2012-12-06 06:15:00
12:35 AM,46.4,41.0,81,30.10,10.0,Calm,Calm,-,N/A,,Overcast,0,2012-12-06 06:35:00
12:55 AM,46.4,42.8,87,30.11,10.0,Calm,Calm,-,N/A,,Overcast,0,2012-12-06 06:55:00
1:15 AM,46.4,42.8,87,30.11,10.0,Calm,Calm,-,N/A,,Overcast,0,2012-12-06 07:15:00
1:35 AM,48.2,42.8,82,30.10,10.0,SE,4.6,-,N/A,,Overcast,140,2012-12-06 07:35:00
1:55 AM,50.0,41.0,71,30.10,10.0,Calm,Calm,-,N/A,,Overcast,0,2012-12-06 07:55:00
2:15 AM,46.4,42.8,87,30.10,10.0,Calm,Calm,-,N/A,,Mostly Cloudy,0,2012-12-06 08:15:00
2:35 AM,46.4,42.8,87,30.10,10.0,Calm,Calm,-,N/A,,Overcast,0,2012-12-06 08:35:00
2:55 AM,46.4,42.8,87,30.09,10.0,Calm,Calm,-,N/A,,Overcast,0,2012-12-06 08:55:00
3:15 AM,46.4,42.8,87,30.09,10.0,Calm,Calm,-,N/A,,Overcast,0,2012-12-06 09:15:00
3:35 AM,48.2,42.8,82,30.09,10.0,Calm,Calm,-,N/A,,Overcast,0,2012-12-06 09:35:00
3:55 AM,50.0,42.8,76,30.10,10.0,Calm,Calm,-,N/A,,Overcast,0,2012-12-06 09:55:00
4:15 AM,51.8,41.0,67,30.10,10.0,Calm,Calm,-,N/A,,Overcast,0,2012-12-06 10:15:00
4:35 AM,51.8,37.4,58,30.10,10.0,Calm,Calm,-,N/A,,Overcast,0,2012-12-06 10:35:00
4:55 AM,50.0,42.8,76,30.10,10.0,Calm,Calm,-,N/A,,Overcast,0,2012-12-06 10:55:00
5:15 AM,50.0,42.8,76,30.10,10.0,Calm,Calm,-,N/A,,Overcast,0,2012-12-06 11:15:00
5:35 AM,50.0,42.8,76,30.11,10.0,Calm,Calm,-,N/A,,Overcast,0,2012-12-06 11:35:00
5:55 AM,50.0,44.6,82,30.11,10.0,Calm,Calm,-,N/A,,Overcast,0,2012-12-06 11:55:00
6:15 AM,50.0,42.8,76,30.11,10.0,Calm,Calm,-,N/A,,Overcast,0,2012-12-06 12:15:00
6:35 AM,50.0,42.8,76,30.11,10.0,Calm,Calm,-,N/A,,Overcast,0,2012-12-06 12:35:00
6:55 AM,51.8,42.8,71,30.11,10.0,SSE,3.5,-,N/A,,Overcast,150,2012-12-06 12:55:00
7:15 AM,55.4,44.6,67,30.11,10.0,SSE,6.9,-,N/A,,Overcast,150,2012-12-06 13:15:00
7:35 AM,55.4,46.4,72,30.11,10.0,SSE,8.1,-,N/A,,Overcast,150,2012-12-06 13:35:00
7:55 AM,55.4,46.4,72,30.11,10.0,SE,9.2,16.1,N/A,,Overcast,140,2012-12-06 13:55:00
8:15 AM,59.0,46.4,63,30.11,10.0,SSE,10.4,16.1,N/A,,Overcast,150,2012-12-06 14:15:00
8:35 AM,59.0,48.2,67,30.11,10.0,SSE,12.7,16.1,N/A,,Overcast,150,2012-12-06 14:35:00
8:55 AM,60.8,48.2,63,30.11,10.0,SSE,9.2,-,N/A,,Overcast,150,2012-12-06 14:55:00
9:15 AM,60.8,48.2,63,30.11,10.0,SSE,11.5,18.4,N/A,,Overcast,150,2012-12-06 15:15:00
9:35 AM,60.8,48.2,63,30.11,10.0,SSE,11.5,17.3,N/A,,Overcast,150,2012-12-06 15:35:00
9:55 AM,62.6,46.4,55,30.11,10.0,SE,11.5,-,N/A,,Overcast,140,2012-12-06 15:55:00
10:15 AM,62.6,46.4,55,30.10,10.0,SE,11.5,-,N/A,,Mostly Cloudy,140,2012-12-06 16:15:00
10:35 AM,62.6,46.4,55,30.10,10.0,SSE,10.4,-,N/A,,Mostly Cloudy,150,2012-12-06 16:35:00
10:55 AM,64.4,46.4,52,30.10,10.0,SSE,11.5,-,N/A,,Overcast,150,2012-12-06 16:55:00
11:15 AM,64.4,46.4,52,30.09,10.0,SSE,11.5,16.1,N/A,,Overcast,160,2012-12-06 17:15:00
11:35 AM,64.4,46.4,52,30.08,10.0,SSE,8.1,-,N/A,,Overcast,150,2012-12-06 17:35:00
11:55 AM,64.4,46.4,52,30.07,10.0,South,9.2,-,N/A,,Overcast,170,2012-12-06 17:55:00
12:15 PM,64.4,46.4,52,30.06,10.0,SSE,8.1,-,N/A,,Overcast,150,2012-12-06 18:15:00
12:35 PM,66.2,46.4,49,30.06,10.0,SSE,6.9,-,N/A,,Overcast,160,2012-12-06 18:35:00
12:55 PM,68.0,46.4,46,30.05,10.0,SSE,8.1,-,N/A,,Mostly Cloudy,150,2012-12-06 18:55:00
1:15 PM,68.0,46.4,46,30.04,10.0,SSE,10.4,-,N/A,,Mostly Cloudy,160,2012-12-06 19:15:00
1:35 PM,68.0,46.4,46,30.04,10.0,South,9.2,-,N/A,,Scattered Clouds,190,2012-12-06 19:35:00
1:55 PM,66.2,46.4,49,30.03,10.0,SSE,8.1,-,N/A,,Scattered Clouds,160,2012-12-06 19:55:00
2:15 PM,68.0,46.4,46,30.02,10.0,SSE,8.1,-,N/A,,Scattered Clouds,150,2012-12-06 20:15:00
2:35 PM,66.2,46.4,49,30.03,10.0,SE,9.2,-,N/A,,Mostly Cloudy,140,2012-12-06 20:35:00
2:55 PM,66.2,46.4,49,30.03,10.0,SE,8.1,-,N/A,,Overcast,140,2012-12-06 20:55:00
3:15 PM,66.2,46.4,49,30.02,10.0,SSE,9.2,-,N/A,,Overcast,150,2012-12-06 21:15:00
3:35 PM,64.4,46.4,52,30.02,10.0,SE,6.9,-,N/A,,Scattered Clouds,140,2012-12-06 21:35:00
3:55 PM,64.4,46.4,52,30.02,10.0,SE,6.9,-,N/A,,Mostly Cloudy,140,2012-12-06 21:55:00
4:15 PM,64.4,46.4,52,30.02,10.0,SE,3.5,-,N/A,,Overcast,140,2012-12-06 22:15:00
4:35 PM,64.4,46.4,52,30.03,10.0,SE,3.5,-,N/A,,Overcast,140,2012-12-06 22:35:00
4:55 PM,64.4,46.4,52,30.03,10.0,SE,5.8,-,N/A,,Overcast,130,2012-12-06 22:55:00
5:15 PM,62.6,44.6,52,30.03,10.0,SE,5.8,-,N/A,,Overcast,130,2012-12-06 23:15:00
5:35 PM,62.6,44.6,52,30.04,10.0,SE,4.6,-,N/A,,Overcast,140,2012-12-06 23:35:00
5:55 PM,62.6,44.6,52,30.04,10.0,SE,3.5,-,N/A,,Overcast,130,2012-12-06 23:55:00
6:15 PM,62.6,44.6,52,30.04,10.0,SE,3.5,-,N/A,,Overcast,130,2012-12-07 00:15:00
6:35 PM,60.8,44.6,55,30.04,10.0,SE,4.6,-,N/A,,Overcast,140,2012-12-07 00:35:00
6:55 PM,60.8,44.6,55,30.04,10.0,SE,8.1,-,N/A,,Scattered Clouds,140,2012-12-07 00:55:00
7:15 PM,60.8,44.6,55,30.04,10.0,SE,8.1,-,N/A,,Clear,130,2012-12-07 01:15:00
7:35 PM,60.8,42.8,52,30.04,10.0,SE,8.1,16.1,N/A,,Scattered Clouds,140,2012-12-07 01:35:00
7:55 PM,59.0,42.8,55,30.04,10.0,SE,8.1,-,N/A,,Scattered Clouds,140,2012-12-07 01:55:00
8:35 PM,59.0,41.0,51,30.04,10.0,SE,11.5,19.6,N/A,,Clear,140,2012-12-07 02:35:00
8:55 PM,59.0,41.0,51,30.04,10.0,SE,9.2,16.1,N/A,,Clear,140,2012-12-07 02:55:00
9:15 PM,57.2,41.0,55,30.04,10.0,SE,8.1,16.1,N/A,,Clear,140,2012-12-07 03:15:00
9:35 PM,57.2,41.0,55,30.04,10.0,SE,8.1,-,N/A,,Mostly Cloudy,140,2012-12-07 03:35:00
9:55 PM,57.2,41.0,55,30.04,10.0,SSE,8.1,-,N/A,,Overcast,150,2012-12-07 03:55:00
10:15 PM,57.2,41.0,55,30.04,10.0,SSE,10.4,16.1,N/A,,Overcast,150,2012-12-07 04:15:00
10:35 PM,55.4,39.2,54,30.04,10.0,SE,10.4,-,N/A,,Overcast,140,2012-12-07 04:35:00
10:55 PM,55.4,39.2,54,30.04,10.0,SSE,6.9,-,N/A,,Overcast,150,2012-12-07 04:55:00
11:15 PM,55.4,39.2,54,30.04,10.0,SE,8.1,-,N/A,,Overcast,140,2012-12-07 05:15:00
11:35 PM,55.4,37.4,51,30.04,10.0,SE,9.2,16.1,N/A,,Overcast,140,2012-12-07 05:35:00
11:55 PM,55.4,37.4,51,30.04,10.0,SSE,9.2,16.1,N/A,,Overcast,150,2012-12-07 05:55:00